Regional Weather Roundup
Issued by NWS State College, PA

Home | Current Version | Previous Version | Graphics & Text | Print | Product List | Glossary On
Versions: 1 2 3 4 5 6 7 8 9 10 11 12 13 14 15 16 17 18 19 20 21 22 23 24 25 26 27 28 29 30 31 32 33 34 35 36 37 38 39 40 41 42 43 44 45 46 47 48 49 50
000
ASUS41 KCTP 180710
RWRCTP

REGIONAL WEATHER ROUNDUP
NATIONAL WEATHER SERVICE STATE COLLEGE PA
300 AM EDT SAT APR 18 2015

Note: "fair" indicates few or no clouds below 12,000 feet with no
significant weather and/or obstructions to visibility.

* = STATION THAT DOES NOT REPORT PRECIPITATION /E.G. RAIN...SNOW...ETC/
    THUNDER OR FOG.

PAZ002>004-007>009-013>016-020>023-029>032-180800-
WESTERN PENNSYLVANIA

CITY           SKY/WX    TMP DP  RH WIND       PRES   REMARKS
ERIE           CLEAR     51  42  71 S8        29.99F
MEADVILLE      CLEAR     52  44  74 SE3       30.01F
FRANKLIN*      CLEAR     45  39  81 CALM      30.04F
NEW CASTLE     FAIR      46  46 100 CALM      30.03F
BEAVER COUNTY  NOT AVBL
BUTLER*        CLEAR     45  41  87 NE3       30.04F
PITTSBURGH INT PTCLDY    50  45  83 CALM      30.02F
PITTSBURGH     CLEAR     54  45  71 S7        30.02F
INDIANA*       MOCLDY    45  43  93 E3        30.07F
LATROBE        CLEAR     46  46 100 CALM      30.05F FOG
WASHINGTON CO* PTCLDY    43  39  87 CALM      30.05F
$$

PAZ004>006-010>012-017>019-024>028-033>037-041-042-045-046-049>053-180800-
CENTRAL PENNSYLVANIA

CITY           SKY/WX    TMP DP  RH WIND       PRES   REMARKS
BRADFORD       CLEAR     39  36  89 CALM      30.02F FOG
DUBOIS         CLEAR     51  44  77 CALM      30.02F
CLEARFIELD     CLEAR     46  44  93 CALM      30.03F FOG
JOHNSTOWN      CLEAR     50  43  77 S3        30.04F
ALTOONA        CLEAR     51  45  79 CALM      30.03F
STATE COLLEGE  CLEAR     52  46  80 CALM      30.02F
WILLIAMSPORT   CLEAR     49  45  86 CALM      30.00F
SELINSGROVE    CLEAR     46  45  96 CALM      30.01F
FT INDIANTOWN  CLEAR     60  47  64 E2        29.99R
CAPITAL CITY   CLEAR     53  48  83 W3        29.99F
HARRISBURG     PTCLDY    51  48  89 CALM      29.98F
YORK           CLEAR     46  44  93 CALM      29.99F FOG
$$

PAZ038>040-043-044-047-048-054-055-060>062-067>071-180800-
EASTERN PENNSYLVANIA

CITY           SKY/WX    TMP DP  RH WIND       PRES   REMARKS
SCRANTON       CLEAR     50  45  83 E6        29.99F
MOUNT POCONO   CLEAR     48  43  82 NW8       29.99F
ALLENTOWN      CLEAR     51  48  89 CALM      29.99S
QUAKERTOWN*    SUNNY     48  48 100 CALM      29.99S
READING        CLEAR     54  49  83 NW5       29.98S
LANCASTER      PTCLDY    51  48  89 W6        29.98F
COATESVILLE    SUNNY     55  50  82 NW5       29.99S
POTTSTOWN      CLEAR     52  50  93 CALM      29.99F
BLUE BELL      CLEAR     54  52  94 CALM      29.97S
DOYLESTOWN     CLEAR     53  51  93 CALM      29.97F
WILLOW GROVE   NOT AVBL
NORTH PHILA    PTCLDY    59  51  75 N5        29.98F
PHILADELPHIA   PTCLDY    57  54  89 CALM      29.98R
$$


USA.gov is the U.S. government's official web portal to all federal, state and local government web resources and services.